Cortez, CO

1:18 AM MDT on July 27, 2017 (GMT -0600)
Cortez Municipal

Weather History for KCEZ - July, 2014

Change the Weather History Date:

Thursday, July 10, 2014

  Actual Average Record
Temperature  
Mean Temperature 74 °F 71 °F  
Max Temperature 90 °F 91 °F 99 °F (2003)
Min Temperature 57 °F 52 °F 45 °F (2005)
Degree Days  
Heating Degree Days 0 0  
Month to date heating degree days 0 0  
Since 1 June heating degree days 31 75  
Since 1 July heating degree days 0 0  
Cooling Degree Days 9 6  
Month to date cooling degree days 92 53  
Year to date cooling degree days 165 116  
Since 1 June cooling degree days 149 111  
Growing Degree Days 23 (Base 50)    
Moisture  
Dew Point 50 °F    
Average Humidity 53    
Maximum Humidity 80    
Minimum Humidity 25    
Precipitation  
Precipitation 0.00 in 0.02 in 0.20 in (2006)
Month to date precipitation 0.33 0.12  
Year to date precipitation 3.32 5.74  
Sea Level Pressure  
Sea Level Pressure 29.92 in    
Wind  
Wind Speed 6 mph (WNW)    
Max Wind Speed 14 mph    
Max Gust Speed 18 mph    
Visibility 10 miles    
Events Thunderstorm    
T = Trace of Precipitation, MM = Missing Value Source: NWS Daily Summary

Daily Weather History Graph

Daily Weather History Graph

Search for Another Location

Airport or City:

Trip Planner

Search our weather history database for the weather conditions in past years. The results will help you decide how hot, cold, wet, or windy it might be!

Date:

Astronomy

Jul. 10, 2014 Rise Set
Actual Time 6:02 AM MDT 8:36 PM MDT
Civil Twilight 5:32 AM MDT 9:07 PM MDT
Nautical Twilight 4:54 AM MDT 9:45 PM MDT
Astronomical Twilight 4:12 AM MDT 10:27 PM MDT
Moon 6:54 PM MDT (7/10) 4:15 AM MDT (7/10)
Length of Visible Light 15h 35m
Length of Day
14h 34m
Waxing Gibbous, 96% of the Moon is Illuminated
Jul 10
Waxing Gibbous
Jul 12
Full
Jul 18
Last Quarter
Jul 26
New
Aug 3
First Quarter

Hourly Weather History & Observations

Time (MDT) Temp. Dew Point Humidity Pressure Visibility Wind Dir Wind Speed Gust Speed Precip Events Conditions
12:53 AM 71.1 °F 51.1 °F 49% 29.92 in 10.0 mi Variable 4.6 mph - N/A   Clear
2:53 AM 63.0 °F 51.1 °F 65% 29.94 in 10.0 mi East 4.6 mph - N/A   Partly Cloudy
4:53 AM 62.1 °F 52.0 °F 70% 29.98 in 10.0 mi ENE 5.8 mph - N/A   Mostly Cloudy
5:53 AM 57.9 °F 52.0 °F 81% 29.99 in 10.0 mi NNE 5.8 mph - N/A   Clear
7:53 AM 66.9 °F 51.1 °F 57% 29.96 in 10.0 mi North 5.8 mph - N/A   Clear
8:53 AM 71.1 °F 52.0 °F 51% 29.97 in 10.0 mi Calm Calm - N/A   Clear
9:53 AM 75.0 °F 53.1 °F 46% 29.96 in 10.0 mi SSW 8.1 mph - N/A   Clear
10:53 AM 80.1 °F 52.0 °F 38% 29.95 in 10.0 mi Variable 5.8 mph - N/A   Clear
11:53 AM 82.9 °F 51.1 °F 33% 29.91 in 10.0 mi SW 8.1 mph - N/A   Clear
12:53 PM 81.0 °F 50.0 °F 34% 29.90 in 10.0 mi West 5.8 mph - N/A   Partly Cloudy
1:53 PM 84.9 °F 50.0 °F 30% 29.86 in 10.0 mi Variable 4.6 mph - N/A   Clear
2:53 PM 84.9 °F 48.9 °F 29% 29.84 in 10.0 mi Calm Calm - N/A   Clear
3:53 PM 87.1 °F 48.0 °F 26% 29.81 in 10.0 mi SW 5.8 mph - N/A   Clear
4:53 PM 89.1 °F 46.9 °F 23% 29.79 in 10.0 mi WNW 8.1 mph - N/A Thunderstorm Thunderstorm
5:06 PM 89.1 °F 46.9 °F 23% 30.06 in 10.0 mi Variable 6.9 mph 16.1 mph N/A Thunderstorm Clear
5:30 PM 89.1 °F 46.9 °F 23% 30.05 in 10.0 mi Variable 3.5 mph - N/A   Clear
5:53 PM 87.1 °F 46.0 °F 24% 29.80 in 10.0 mi WNW 6.9 mph - N/A   Clear
6:53 PM 84.0 °F 46.0 °F 26% 29.80 in 10.0 mi South 4.6 mph - N/A   Clear
7:53 PM 86.0 °F 46.0 °F 25% 29.78 in 10.0 mi South 4.6 mph - N/A   Clear
8:53 PM 78.1 °F 50.0 °F 37% 29.80 in 10.0 mi NE 6.9 mph - N/A   Clear
9:53 PM 73.9 °F 52.0 °F 46% 29.84 in 10.0 mi ENE 6.9 mph - N/A   Mostly Cloudy
10:51 PM 75.2 °F 50.0 °F 41% 30.13 in 10.0 mi WNW 6.9 mph - N/A Thunderstorm Scattered Clouds
10:53 PM 75.9 °F 50.0 °F 40% 29.85 in 10.0 mi WNW 8.1 mph - N/A Thunderstorm Mostly Cloudy
11:16 PM 72.0 °F 52.0 °F 49% 30.14 in 10.0 mi SE 5.8 mph - N/A   Partly Cloudy
11:53 PM 70.0 °F 52.0 °F 53% 29.87 in 10.0 mi East 6.9 mph - N/A   Clear